Miscellaneous Local Product
Issued by NWS Hastings, NE

Home | Current Version | Previous Version | Graphics & Text | Print | Product List | Glossary On
Versions: 1 2 3 4 5 6 7 8 9 10 11 12 13 14 15 16 17 18 19 20 21 22 23 24 25 26 27 28 29 30 31 32 33 34 35 36 37 38 39 40 41 42 43 44 45 46 47 48 49 50
000
AXUS43 KGID 280802
MISGRI

GID CWA HOURLY WEATHER ROUNDUP
NATIONAL WEATHER SERVICE HASTINGS NE
300 AM CDT FRI AUG 28 2015

NOTE: "FAIR" INDICATES FEW OR NO CLOUDS BELOW 12,000 FEET WITH NO
SIGNIFICANT WEATHER AND/OR OBSTRUCTIONS TO VISIBILITY.

...SOUTH CENTRAL NEBRASKA...

CITY           SKY/WX    TMP DP  RH WIND       PRES   REMARKS
GRAND ISLAND   PTCLDY    71  66  84 SW8       29.83F
HASTINGS       PTCLDY    71  67  87 SW9       29.84R
KEARNEY        PTCLDY    70  64  83 W7        29.84S
ORD            CLOUDY    65  64  97 NW8       29.83F FOG
YORK           CLOUDY    68  66  94 CALM      29.84S
AURORA         MOCLDY    71  68  91 CALM      29.83F
LEXINGTON      MOCLDY    71  69  94 W7        29.89F
HOLDREGE       PTCLDY    68  65  89 W3        29.86F
HEBRON         MOCLDY    74  63  69 S20G30    29.84S

...NEBRASKA PANHANDLE...

CITY           SKY/WX    TMP DP  RH WIND       PRES   REMARKS
CHADRON        CLEAR     52  50  93 SW5       30.01F
ALLIANCE       PTCLDY    51  49  92 W7        30.04S
SCOTTSBLUFF    PTCLDY    57  54  89 W7        30.07R
SIDNEY         PTCLDY    59  54  83 NW10      30.08F

...WESTERN AND NORTH CENTRAL NEBRASKA...

CITY           SKY/WX    TMP DP  RH WIND       PRES   REMARKS
VALENTINE      NOT AVBL
AINSWORTH      CLOUDY    69  68  97 CALM      29.91S
ONEILL         CLOUDY    67  66  95 E8        29.87F
BROKEN BOW     CLOUDY    69  67  93 N3        29.87F
IMPERIAL       CLEAR     64  58  80 NW9       29.99F
NORTH PLATTE   CLEAR     65  63  93 W8        29.93S
MCCOOK         CLEAR     68  63  84 W10       29.93S

...EASTERN NEBRASKA...

CITY           SKY/WX    TMP DP  RH WIND       PRES   REMARKS
NORFOLK        CLOUDY    68  65  90 S8        29.83S
SO SIOUX CITY  HVY RAIN  66  63  90 E18G25    29.88F FOG
TEKAMAH        LGT RAIN  67  66  97 SE20G31   29.86F
COLUMBUS       CLOUDY   N/A N/A N/A SE6       29.84F
ALBION         CLOUDY    67  64  91 SE6       29.83S
OMAHA EPPLEY   TSTM      68  67  96 SE10      29.93R FOG
OFFUTT AFB     TSTM      68  66  94 E8        29.92R FOG
MILLARD        HVY RAIN  69  66  93 SE8       29.91F
LINCOLN        CLOUDY    70  68  93 SE15      29.85F
NEBRASKA CITY  RAIN      68  68  98 SE5       29.94R
BEATRICE       CLOUDY    72  66  83 S14G21    29.84S
FALLS CITY     CLOUDY    70  66  87 S10       29.91S

...NORTHERN KANSAS...

CITY           SKY/WX    TMP DP  RH WIND       PRES   REMARKS
GOODLAND       CLEAR     64  59  83 NW10      30.03S
HILL CITY      CLOUDY    74  64  71 W5        29.91S
NORTON         SUNNY     68  61  77 W6        29.89S
PHILLIPSBURG   CLEAR     77  64  65 SW9       29.86S
SMITH CENTER   CLEAR     70  66  88 S9        29.87F
HAYS           MOCLDY    79  57  47 SW21G28   29.88S
RUSSELL        MOCLDY    75  66  73 S18       29.87F
CONCORDIA      CLOUDY    72  68  87 S22G32    29.87F
SALINA         CLOUDY    76  67  73 S14G21    29.91F
TOPEKA         CLOUDY    70  64  81 SE8       29.95F



USA.gov is the U.S. government's official web portal to all federal, state and local government web resources and services.